星链-5691 (STARLINK-5691 )

导读 | 豆包AI

STARLINK-5691是美国SpaceX公司研发制造的星链系列商用通信卫星,于2023年2月2日在东部试验靶场由猎鹰9号火箭发射升空。卫星湿重约305千克,运行在近地轨道,倾角约43度,轨道周期约96分钟,近地点高度约560公里、远地点约562公里,核心任务是为全球提供商业通信互联网服务,是星链星座组网建设的重要组成部分。

基本信息
目录编号:
55478
目录名称:
STARLINK-5691
国际标识:
2023-015AF
轨道中心:
EARTH
卫星名称:
星链-5691
卫星全名:
星链-5691 (STARLINK-5691 )
卫星状态:
在轨 (已飞行1137 天)
发射日期:
2023-02-02 UTC
国别 :
美国 (US)
星等 :
--
轨道信息
数据来源 国际轨道数据 AOE轨道数据
星历时间 2026-03-14T23:30:25+0800
23小时前
查看轨道信息
2026-03-14T02:00:00+0800
1天前
查看轨道信息
半长轴 6937.224km 6937.18km
偏心率 0.0001123 0.000136
轨道倾角 43.002° 43.004°
近地点辐角 265.340° 249.085°
升交点赤经 286.559° 291.433°
平近点角 94.732° 298.267°
近地点 558.307km 558.099km
远地点 559.867km 559.987km
周期 95.838分钟 95.837分钟
每日圈数 15.025337 15.025481
详细信息
固有亮度:
5
最大亮度:
2.5
卫星平台:
Starlink v1.5
覆盖范围:
全球
运营商:
太空探索技术公司
运营商所在国:
美国
制造商(研发单位):
太空探索技术公司
制造商所在国:
美国
使用方式:
暂无
卫星简介
星链(Starlink)计划是由太空探索技术公司(SpaceX)提出的一个巨型低轨卫星互联网星座项目,计划在2019年至2024年间在太空搭建由约1.2万颗卫星组成的“星链”网络,其中1584颗将部署在地球上空550千米处的近地轨道,并从2020年开始工作。该卫星仍在工作。
2D轨道图
3D轨道图
轨道高度分析图
轨道倾角分析图
轨道综合分析图
查看轨道综合分析图